Home > Time Zones > World Clock > Weather > Norway > Tau > Past weeks

Flag for Norway Weather past 2 weeks in Tau, Norway

Now
43 °F

Scattered showers. Partly cloudy.


Feels Like: 34 °F
Forecast: 37 / 45 °F
Wind: 20 mph from West

Location: Stavanger / Sola

Current Time: Dec 20, 2014 at 3:35:43 AM

Latest Report: Dec 20, 2014 at 2:50 AM


Visibility: N/A

Pressure: 29.27 "Hg

Humidity: 76%

Dew point: 36 °F

Location of TauLocation

Historic Weather in Tau — Graph

°F

Tau temperature yesterday

Maximum temperature yesterday: 46 °F (at 12:20 AM)
Minimum temperature yesterday: 39 °F (at 8:20 AM)
Average temperature yesterday: 43 °F

Past Weeks' High & Low Weather Summary

 TemperatureHumidityPressure
High50 °F (Dec 7, 2:50 AM)100% (Dec 5, 8:20 PM)30.07 "Hg (Dec 5, 8:20 PM)
Low32 °F (Dec 6, 9:20 AM)52% (Dec 15, 6:20 PM)28.97 "Hg (Dec 11, 2:20 PM)
Average42 °F81%29.42 "Hg
* Reported Dec 5 1:50 AM — Dec 20 1:50 AM, Tau, Weather by CustomWeather, © 2014

Note: Actual official high and low records may vary slightly from our data, if they occured in-between our weather recording intervals... More about our weather records

Advertising

Tau weather history for previous 24 hours

 ConditionsComfort  
Time TempWeatherWind HumidityBarometerVisibility
1:50 AM
Dec 20
43 °FThundershowers. Partly cloudy.26 mph76%29.27 "HgN/A
1:20 AM43 °FThundershowers. Partly cloudy.21 mph76%29.27 "HgN/A
12:50 AM41 °FThundershowers. Partly cloudy.23 mph81%29.27 "HgN/A
12:20 AM43 °FThundershowers. Partly cloudy.21 mph81%29.27 "HgN/A
11:50 PM
Dec 19
43 °FThundershowers. Partly cloudy.18 mph76%29.27 "HgN/A
11:20 PM43 °FScattered showers. Partly cloudy.21 mph71%29.27 "HgN/A
10:50 PM43 °FScattered showers. Partly cloudy.23 mph76%29.27 "HgN/A
9:50 PM43 °FThundershowers. Partly cloudy.22 mph76%29.27 "HgN/A
9:20 PM43 °FPartly cloudy.24 mph76%29.27 "HgN/A
8:50 PM43 °FThundershowers. Partly cloudy.23 mph81%29.27 "HgN/A
8:20 PM39 °FThundershowers. Partly cloudy.21 mph87%29.27 "Hg5 mi
7:50 PM43 °FSprinkles. Partly cloudy.23 mph71%29.27 "HgN/A
7:20 PM41 °FThundershowers. Passing clouds.38 mph76%29.27 "HgN/A
6:50 PM46 °FThundershowers. Partly cloudy.26 mph66%29.24 "HgN/A
6:20 PM45 °FThundershowers. Partly cloudy.23 mph76%29.24 "HgN/A
5:50 PM45 °FThundershowers. Partly cloudy.23 mph76%29.24 "HgN/A
5:20 PM45 °FThundershowers. Partly cloudy.29 mph71%29.21 "HgN/A
4:50 PM45 °FScattered showers. Passing clouds.23 mph71%29.21 "HgN/A
4:20 PM43 °FRain showers. Passing clouds.24 mph81%29.21 "HgN/A
3:50 PM41 °FScattered showers. Passing clouds.28 mph81%29.18 "HgN/A
3:20 PM43 °FPartly sunny.23 mph76%29.21 "HgN/A
2:50 PM41 °FBroken clouds.25 mph81%29.18 "HgN/A
2:20 PM43 °FScattered showers. Broken clouds.21 mph76%29.18 "HgN/A
1:50 PM41 °FScattered showers. Scattered clouds.23 mph81%29.18 "HgN/A
1:20 PM43 °FScattered showers. Broken clouds.23 mph76%29.18 "HgN/A
12:50 PM41 °FBroken clouds.18 mph76%29.18 "HgN/A
12:20 PM43 °FBroken clouds.21 mph76%29.18 "HgN/A
11:50 AM39 °FScattered showers. Partly sunny.25 mph87%29.18 "HgN/A
11:20 AM41 °FScattered showers. Broken clouds.12 mph76%29.18 "HgN/A
10:50 AM39 °FSprinkles. Broken clouds.24 mph87%29.18 "HgN/A
10:20 AM43 °FSprinkles. Broken clouds.22 mph71%29.18 "HgN/A
9:50 AM45 °FBroken clouds.18 mph66%29.18 "HgN/A
9:20 AM41 °FScattered showers. Partly cloudy.16 mph70%29.18 "HgN/A
8:50 AM41 °FRain showers. Partly cloudy.9 mph81%29.18 "HgN/A
8:20 AM39 °FPartly cloudy.23 mph87%29.21 "HgN/A
7:50 AM46 °FPassing clouds.25 mph62%29.18 "HgN/A
7:20 AM45 °FPassing clouds.22 mph66%29.18 "HgN/A
6:50 AM46 °FPartly cloudy.20 mph57%29.21 "HgN/A
6:20 AM45 °FRain. Passing clouds.21 mph71%29.21 "HgN/A
5:50 AM45 °FPassing clouds.18 mph66%29.21 "HgN/A
4:50 AM45 °FPartly cloudy.16 mph76%29.21 "HgN/A
3:50 AM43 °FRain. Partly cloudy.17 mph81%29.24 "HgN/A
Weather by CustomWeather, © 2014

See weather overviewHow to use our weather pages